Wengen, Switzerland 16 day weather forecast

Slopes altitude range 945 m - 2970m

Number of lifts: 44 Pistes: 213km

In some cases the lift and piste totals shown are for the ski domain (e.g. Three Valleys) rather than individual resort (e.g. Courchevel)

Overview

The 16 day weather forecast is fully updated 4 times every day.

    • Wed 26 JUN 2019
    • Wed 26
    • 15C 19C
    • Thu 27 JUN 2019
    • Thu 27
    • 15C 19C
    • Fri 28 JUN 2019
    • Fri 28
    • 14C 17C
    • Sat 29 JUN 2019
    • Sat 29
    • 12C 17C
    • Sun 30 JUN 2019
    • Sun 30
    • 13C 17C
    • Mon 01 JUL 2019
    • Mon 01
    • 14C 17C
    • Tue 02 JUL 2019
    • Tue 02
    • 11C 14C
    • Wed 03 JUL 2019
    • Wed 03
    • 10C 13C
    • Thu 04 JUL 2019
    • Thu 04
    • 19C 27C
    • Fri 05 JUL 2019
    • Fri 05
    • 19C 28C
    • Sat 06 JUL 2019
    • Sat 06
    • 12C 19C
    • Sun 07 JUL 2019
    • Sun 07
    • 11C 22C
    • Mon 08 JUL 2019
    • Mon 08
    • 19C 27C
    • Tue 09 JUL 2019
    • Tue 09
    • 19C 27C
    • Wed 10 JUL 2019
    • Wed 10
    • 19C 27C
    • Thu 11 JUL 2019
    • Thu 11
    • 20C 28C

Date:

Time Type 0°C level Temp Chill Snow Cloud Speed Gust Dir Press
3:00 4623m 10°C 10_1 0cm 4% 1mph 3mph 1025mB
6:00 4614m 10°C 10_3 0cm 2% 3mph 3mph 1025mB
9:00 4615m 15°C 15_2 0cm 0% 2mph 3mph 1024mB
12:00 4611m 19°C 19_5 0cm 0% 5mph 5mph 1024mB
15:00 4591m 19°C 19_7 0cm 60% 7mph 7mph 1023mB
18:00 4679m 19°C 19_4 0cm 48% 4mph 5mph 1024mB
21:00 4636m 9°C 9_1 0cm 11% 1mph 3mph 1026mB
0:00 4598m 8°C 8_1 0cm 6% 1mph 3mph 1026mB
3:00 4565m 8°C 8_2 0cm 0% 2mph 4mph 1025mB
6:00 4565m 8°C 8_5 0cm 0% 5mph 5mph 1024mB
9:00 4542m 15°C 15_6 0cm 0% 6mph 7mph 1023mB
12:00 4521m 19°C 19_8 0cm 0% 8mph 10mph 1022mB
15:00 4495m 19°C 19_7 0cm 0% 7mph 9mph 1021mB
18:00 4549m 19°C 19_5 0cm 0% 5mph 6mph 1020mB
21:00 4585m 9°C 9_5 0cm 0% 5mph 6mph 1023mB
0:00 4576m 9°C 9_5 0cm 0% 5mph 6mph 1022mB
3:00 4536m 8°C 8_5 0cm 0% 5mph 6mph 1021mB
6:00 4523m 8°C 8_4 0cm 0% 4mph 5mph 1021mB
9:00 4539m 14°C 14_6 0cm 0% 6mph 7mph 1020mB
12:00 4587m 17°C 17_7 0cm 0% 7mph 7mph 1018mB
15:00 4677m 17°C 17_7 0cm 0% 7mph 7mph 1017mB
18:00 4750m 17°C 17_5 0cm 6% 5mph 5mph 1018mB
21:00 4822m 6°C 6_1 0cm 29% 1mph 3mph 1020mB
0:00 4835m 5°C 5_1 0cm 14% 1mph 2mph 1020mB
3:00 4807m 5°C 5_2 0cm 0% 2mph 3mph 1019mB
6:00 4847m 5°C 5_2 0cm 0% 2mph 3mph 1019mB
9:00 4901m 12°C 12_1 0cm 0% 1mph 3mph 1019mB
12:00 4887m 17°C 17_2 0cm 0% 2mph 3mph 1018mB
15:00 4889m 18°C 18_2 0cm 11% 2mph 3mph 1017mB
18:00 4853m 17°C 17_2 0cm 18% 2mph 2mph 1018mB
21:00 4854m 7°C 7_2 0cm 18% 2mph 3mph 1020mB
0:00 4778m 6°C 6_2 0cm 10% 2mph 3mph 1020mB
3:00 4730m 5°C 5_2 0cm 0% 2mph 3mph 1020mB
6:00 4661m 5°C 5_4 0cm 0% 4mph 4mph 1020mB
9:00 4634m 13°C 13_4 0cm 0% 4mph 4mph 1020mB
12:00 4575m 17°C 17_5 0cm 0% 5mph 5mph 1019mB
15:00 4554m 17°C 17_6 0cm 0% 6mph 5mph 1019mB
18:00 4553m 17°C 17_3 0cm 0% 3mph 3mph 1019mB
21:00 4513m 7°C 7_0 0cm 0% 0mph 3mph 1021mB
0:00 4501m 7°C 7_1 0cm 0% 1mph 3mph 1020mB
3:00 4472m 7°C 7_1 0cm 0% 1mph 3mph 1019mB
6:00 4399m 7°C 7_3 0cm 1% 3mph 4mph 1020mB
9:00 4384m 14°C 14_2 0cm 39% 2mph 2mph 1019mB
12:00 4351m 17°C 17_4 0cm 59% 4mph 5mph 1018mB
15:00 4437m 17°C 17_6 0cm 58% 6mph 6mph 1017mB
18:00 4303m 17°C 17_3 0cm 70% 3mph 5mph 1018mB
21:00 4185m 9°C 9_4 0cm 99% 4mph 5mph 1020mB
0:00 4187m 8°C 8_3 0cm 100% 3mph 4mph 1020mB
3:00 4178m 6°C 6_1 0cm 91% 1mph 2mph 1018mB
6:00 4145m 6°C 6_3 0cm 79% 3mph 3mph 1018mB
9:00 4153m 11°C 11_4 0cm 100% 4mph 5mph 1018mB
12:00 4162m 14°C 14_5 0cm 100% 5mph 5mph 1017mB
15:00 4068m 14°C 14_5 0cm 100% 5mph 5mph 1017mB
18:00 4100m 14°C 14_2 0cm 100% 2mph 2mph 1017mB
21:00 4095m 8°C 8_3 0cm 100% 3mph 3mph 1018mB
0:00 4071m 6°C 6_3 0cm 100% 3mph 4mph 1018mB
3:00 3948m 6°C 6_2 0cm 100% 2mph 3mph 1018mB
6:00 3917m 6°C 6_3 0cm 99% 3mph 3mph 1018mB
9:00 4004m 10°C 10_2 0cm 94% 2mph 3mph 1018mB
12:00 4014m 13°C 13_4 0cm 77% 4mph 5mph 1017mB
15:00 4018m 23°C 23_7 0cm 48% 7mph 6mph 1017mB
18:00 4093m 23°C 23_5 0cm 38% 5mph 8mph 1017mB
21:00 4042m 15°C 15_2 0cm 72% 2mph 3mph 1018mB
0:00 3981m 14°C 14_3 0cm 69% 3mph 3mph 1018mB
3:00 3909m 14°C 14_4 0cm 0% 4mph 4mph 1017mB
6:00 3968m 14°C 14_2 0cm 30% 2mph 2mph 1017mB
9:00 4010m 19°C 19_3 0cm 16% 3mph 3mph 1017mB
12:00 4041m 27°C 27_8 0cm 54% 8mph 12mph 1016mB
15:00 4064m 28°C 28_10 0cm 49% 10mph 15mph 1016mB
18:00 4088m 28°C 28_3 0cm 24% 3mph 4mph 1016mB
21:00 4006m 17°C 17_7 0cm 0% 7mph 7mph 1017mB
0:00 4033m 16°C 16_6 0cm 17% 6mph 7mph 1017mB
3:00 4054m 16°C 16_5 0cm 57% 5mph 6mph 1016mB
6:00 3998m 16°C 16_4 0cm 45% 4mph 6mph 1017mB
9:00 4028m 19°C 19_7 0cm 66% 7mph 18mph 1017mB
12:00 4012m 28°C 28_13 0cm 46% 13mph 23mph 1017mB
15:00 4035m 29°C 29_14 0cm 30% 14mph 26mph 1016mB
18:00 4053m 29°C 29_4 0cm 42% 4mph 8mph 1018mB
21:00 3995m 15°C 15_2 0cm 100% 2mph 2mph 1020mB
0:00 3947m 15°C 15_2 0cm 100% 2mph 3mph 1021mB
Afternoon 0.0416667mm 0.125 3538m 19°C 19_5 0cm 90% 5mph 4mph 1022mB
Morning 0mm 0 4030m 8°C 8_2 0cm 0% 2mph 3mph 1024mB
Afternoon 0mm 0 4483m 22°C 22_5 0cm 1% 5mph 4mph 1020mB
Morning 0mm 0 4408m 13°C 13_3 0cm 0% 3mph 4mph 1020mB
Afternoon 0mm 0.0625 4428m 27°C 27_5 0cm 20% 5mph 5mph 1017mB
Morning 0.0625mm 0.1875 4317m 17°C 17_4 0cm 26% 4mph 4mph 1018mB
Afternoon 0.291667mm 0.9375 4302m 27°C 27_7 0cm 23% 7mph 11mph 1017mB
Morning 0.583333mm 1.8125 4129m 16°C 16_5 0cm 67% 5mph 6mph 1019mB
Afternoon 0.416667mm 1.3125 4178m 27°C 27_5 0cm 46% 5mph 8mph 1016mB
Morning 0mm 0 4061m 16°C 16_4 0cm 49% 4mph 5mph 1016mB
Afternoon 0.145833mm 0.5 4138m 28°C 28_5 0cm 3% 5mph 5mph 1011mB
Morning 0.270833mm 0 3821m 13°C 13_7 0cm 91% 7mph 13mph 1011mB

16 day outlook at a glance

Forecast issued: 6/26/2019 7:52:43 AM

Chat

Your comments and questions. In a resort? Let us know what it's like!


Characters left 250

For terms and conditions see Readers Comments on the Cookie and privacy policy page.